Location: Bothwell
(42.3833°S, 147.0000°E)
Time: 04:34:20
(UTC+11:00)

ITUPSAT 1 - Pass Details

Date: 03 October 2022
Orbit: 700 x 710 km, 98.5° (Epoch: 29 November)

Event Time Altitude Azimuth Distance (km) Brightness Sun altitude
Exits shadow 20:59:57 18° 12° (NNE) 1,715 ? -18.5°
Maximum altitude 21:03:34 84° 284° (WNW) 729 ? -19.1°
Drops below altitude 10° 21:08:28 10° 195° (SSW) 2,222 ? -20.0°
Sets 21:10:45 0° 194° (SSW) 3,150 ? -20.3°
